CZ-6A DEB, 55511

Orbit data source: Space-Track

CZ-6A DEB, 55511 is space debris in SSO originally from a launch on Fri, 11 Nov 2022 UTC launched from the Taiyaun Space Center, China (TSC). Debris objects in space refer to the collection of defunct objects orbiting the Earth. Examples of debris include non-operational satellites, rocket bodies, and fragments generated from explosions, collisions, or faulty payload assembly.

Loading next visibility...
Identifier
55511, 2022-151XH
Orbit
SSO
Country
Flag of CNCN / PRC
Related business
Manufacturer
SAST
Mission
Spacecraft
Bus & Motor
Unknown
Mass
Unknown
Launch date (UTC)
2022-11-11 (4 years ago)
Launch vehicle
Unknown
Launch site
Taiyaun Space Center, China (TSC)
Object type
Payload
Rocket body
Debris
Shape & HBR
Unknown shape, 0.1 m
Radar Cross Section
Medium (>0.1 m² and <1 m²)

Expand to show TLE details & history
Last TLE update: 2 days ago

TLE from 2 days ago
0 CZ-6A DEB
1 55511U 22151XH  26170.94967912  .00001643  00000-0  81574-3 0  9993
2 55511  98.8269 180.3853 0037993 308.7363  51.0418 14.18160313180714
Epoch: 2026-06-19T22:47Z
TLE epoch observation values (Epoch: 2026-06-19T22:47:32.275Z)
Latitude
-0.00007°
Longitude
-69.67048°
Altitude
817.326 km
Speed
7.453 km/s
True Right ascension
12h 01m 32s
True Declination
0° 00' 00"
Sunlit
Object was in daylight at epoch
Visualization orbit readout
Latitude
Unknown
Longitude
Unknown
Altitude
Unknown
Speed
Unknown
Apparent Right ascension
Unknown
Apparent Declination
Unknown
Sunlit
N/A
Visualization observer readout
Local Sidereal Time
21:47:52
Azimuth
Unknown
Elevation
Unknown
Doppler factor
Unknown
Orbital elements
Apogee altitude
856.129 km
Perigee altitude
801.367 km
Semi-major axis
7,206.885 km
Eccentricity
0.0038
Inclination
98.8269°
RAAN
180.3853°
Arg. of periapsis
308.7363°
True anomaly
51.38136°
Mean anomaly
51.0418°
Eccentric anomaly
51.21148°
Mean motion
3.5475 °/min
Orbital period
101.48 mins
BSTAR
0.00081574
Loading maneuver chart data...
Computing Atmospheric mass density...
Loading historical data...
Loading historical data...
Loading historical data...
Loading historical data...
Loading historical data...
Loading historical data...
Loading historical data...

Documentation

Showing up to 5 results
|